Weather History for Zapata, TX

Change the Weather History Date:

Tuesday, January 15, 2013

  Actual Average (KLRD) Record (KLRD)
Temperature  
Mean Temperature 48 °F 56 °F  
Max Temperature 52 °F 67 °F 88 °F (1936)
Min Temperature 42 °F 46 °F 23 °F (1905)
Degree Days  
Heating Degree Days 18 10  
Month to date heating degree days 150  
Since 1 July heating degree days 540  
Cooling Degree Days 0 1  
Month to date cooling degree days 15  
Year to date cooling degree days 15  
Moisture  
Dew Point 36 °F    
Average Humidity 64    
Maximum Humidity 73    
Minimum Humidity 50    
Precipitation  
Precipitation 0.00 in 0.03 in 0.87 in (2010)
Month to date precipitation 0.44  
Year to date precipitation 0.44  
Sea Level Pressure  
Sea Level Pressure 30.12 in    
Wind  
Wind Speed 6 mph (NNW)    
Max Wind Speed 16 mph    
Max Gust Speed 20 mph    
Visibility 10 miles    
Events      
T = Trace of Precipitation, MM = Missing Value Source: NWS Daily Summary

Daily Weather History Graph

Daily Weather History Graph

Search for Another Location

Airport:

Trip Planner

Search our weather history database for the weather conditions in past years. The results will help you decide how hot, cold, wet, or windy it might be!

Date:

Astronomy

Jan. 15, 2013 Rise Set
Actual Time 7:27 AM CST 6:05 PM CST
Civil Twilight 7:02 AM CST 6:30 PM CST
Nautical Twilight 6:34 AM CST 6:59 PM CST
Astronomical Twilight 6:05 AM CST 7:27 PM CST
Moon 10:02 AM CST (1/15) 10:25 PM CST (1/15)
Length of Visible Light 11h 28m
Length of Day
10h 38m
Waxing Crescent, 19% of the Moon is Illuminated
Jan 15
Waxing Crescent
Jan 18
First Quarter
Jan 26
Full
Feb 3
Last Quarter
Feb 10
New

Hourly Weather History & Observations

Time (CST) Temp. Windchill Dew Point Humidity Pressure Visibility Wind Dir Wind Speed Gust Speed Precip Events Conditions
1:15 AM 48.6 °F - 36.5 °F 63% 30.07 in 10.0 mi Calm Calm - N/A   Overcast
1:55 AM 48.6 °F - 36.7 °F 64% 30.06 in 10.0 mi Calm Calm - N/A   Overcast
2:55 AM 48.4 °F - 37.0 °F 65% 30.05 in 10.0 mi North 4.6 mph - N/A   Overcast
3:15 AM 48.4 °F - 36.9 °F 64% 30.05 in 10.0 mi North 4.6 mph - N/A   Overcast
3:35 AM 48.4 °F - 37.4 °F 66% 30.04 in 10.0 mi NNE 3.5 mph - N/A   Overcast
3:55 AM 48.4 °F - 37.4 °F 66% 30.04 in 10.0 mi North 4.6 mph - N/A   Overcast
4:15 AM 48.4 °F - 37.6 °F 66% 30.04 in 10.0 mi North 5.8 mph - N/A   Overcast
4:35 AM 48.6 °F - 37.6 °F 66% 30.04 in 10.0 mi North 5.8 mph - N/A   Overcast
4:55 AM 48.6 °F - 37.6 °F 66% 30.04 in 10.0 mi North 4.6 mph - N/A   Overcast
5:15 AM 48.6 °F - 37.6 °F 66% 30.04 in 10.0 mi North 5.8 mph - N/A   Overcast
5:35 AM 48.6 °F - 37.8 °F 66% 30.04 in 10.0 mi North 5.8 mph - N/A   Overcast
5:55 AM 48.6 °F - 37.8 °F 66% 30.04 in 10.0 mi North 5.8 mph - N/A   Overcast
6:15 AM 48.6 °F - 38.1 °F 67% 30.06 in 10.0 mi NNW 6.9 mph - N/A   Overcast
6:35 AM 48.6 °F - 38.3 °F 68% 30.05 in 10.0 mi North 6.9 mph - N/A   Overcast
6:55 AM 48.6 °F - 38.7 °F 69% 30.06 in 10.0 mi North 5.8 mph - N/A   Overcast
7:15 AM 48.4 °F - 38.1 °F 68% 30.07 in 10.0 mi North 5.8 mph - N/A   Overcast
7:35 AM 48.0 °F - 37.6 °F 67% 30.07 in 10.0 mi North 9.2 mph - N/A   Overcast
7:55 AM 47.8 °F - 37.8 °F 68% 30.07 in 10.0 mi North 8.1 mph - N/A   Overcast
8:15 AM 47.7 °F - 37.9 °F 69% 30.09 in 10.0 mi North 8.1 mph - N/A   Overcast
8:35 AM 47.5 °F - 38.7 °F 71% 30.10 in 10.0 mi North 10.4 mph - N/A   Overcast
8:55 AM 47.3 °F - 39.2 °F 73% 30.10 in 10.0 mi North 9.2 mph - N/A   Overcast
9:15 AM 47.3 °F - 38.8 °F 72% 30.12 in 10.0 mi NNW 10.4 mph - N/A   Overcast
9:35 AM 47.3 °F - 39.0 °F 73% 30.12 in 10.0 mi North 10.4 mph - N/A   Overcast
9:55 AM 47.8 °F - 39.4 °F 72% 30.13 in 10.0 mi North 9.2 mph - N/A   Overcast
10:15 AM 47.8 °F - 39.4 °F 72% 30.12 in 10.0 mi North 10.4 mph - N/A   Overcast
10:35 AM 48.2 °F - 39.4 °F 72% 30.13 in 10.0 mi North 6.9 mph - N/A   Overcast
10:55 AM 48.6 °F - 39.6 °F 71% 30.12 in 10.0 mi North 9.2 mph - N/A   Overcast
11:15 AM 48.7 °F - 39.4 °F 70% 30.13 in 10.0 mi NNW 11.5 mph - N/A   Overcast
11:35 AM 48.6 °F - 39.2 °F 70% 30.12 in 10.0 mi North 9.2 mph - N/A   Overcast
11:55 AM 48.4 °F - 38.8 °F 70% 30.12 in 10.0 mi North 10.4 mph - N/A   Overcast
12:35 PM 48.4 °F - 38.5 °F 69% 30.10 in 10.0 mi NNW 11.5 mph - N/A   Overcast
12:55 PM 49.1 °F - 38.3 °F 66% 30.09 in 10.0 mi NNW 11.5 mph 16.1 mph N/A   Overcast
1:35 PM 50.0 °F - 37.9 °F 63% 30.09 in 10.0 mi NNW 9.2 mph - N/A   Overcast
1:55 PM 50.2 °F - 37.4 °F 62% 30.07 in 10.0 mi NNW 10.4 mph 19.6 mph N/A   Overcast
2:15 PM 50.2 °F - 37.4 °F 62% 30.07 in 10.0 mi North 11.5 mph 17.3 mph N/A   Overcast
2:35 PM 50.4 °F - 37.4 °F 61% 30.07 in 10.0 mi NNW 16.1 mph 19.6 mph N/A   Overcast
2:55 PM 50.9 °F - 36.5 °F 58% 30.07 in 10.0 mi NNW 12.7 mph 17.3 mph N/A   Overcast
3:15 PM 51.1 °F - 36.0 °F 56% 30.07 in 10.0 mi NNW 12.7 mph 18.4 mph N/A   Mostly Cloudy
3:35 PM 51.8 °F - 35.2 °F 53% 30.08 in 10.0 mi NNW 12.7 mph 18.4 mph N/A   Scattered Clouds
3:55 PM 52.0 °F - 34.7 °F 52% 30.09 in 10.0 mi NNW 15.0 mph 18.4 mph N/A   Clear
4:15 PM 52.0 °F - 34.7 °F 52% 30.10 in 10.0 mi NNW 11.5 mph 18.4 mph N/A   Clear
4:35 PM 52.2 °F - 34.5 °F 51% 30.10 in 10.0 mi NNW 12.7 mph - N/A   Clear
4:55 PM 52.2 °F - 34.0 °F 50% 30.10 in 10.0 mi NNW 13.8 mph - N/A   Clear
5:15 PM 51.8 °F - 33.4 °F 50% 30.11 in 10.0 mi NNW 6.9 mph - N/A   Clear
5:35 PM 51.6 °F - 33.8 °F 51% 30.11 in 10.0 mi NNW 5.8 mph - N/A   Clear
5:55 PM 51.1 °F - 34.0 °F 52% 30.12 in 10.0 mi NNW 3.5 mph - N/A   Clear
6:15 PM 50.0 °F - 34.7 °F 56% 30.12 in 10.0 mi NNW 3.5 mph - N/A   Clear
6:35 PM 49.1 °F - 34.7 °F 58% 30.12 in 10.0 mi NNW 3.5 mph - N/A   Clear
6:55 PM 48.6 °F - 34.7 °F 59% 30.13 in 10.0 mi Calm Calm - N/A   Clear
7:15 PM 47.3 °F - 35.1 °F 62% 30.14 in 10.0 mi Calm Calm - N/A   Clear
7:35 PM 46.4 °F 45.2 °F 34.5 °F 63% 30.15 in 10.0 mi NNW 3.5 mph - N/A   Clear
7:55 PM 45.5 °F 44.2 °F 34.0 °F 64% 30.16 in 10.0 mi WNW 3.5 mph - N/A   Clear
8:15 PM 45.1 °F 43.7 °F 34.5 °F 66% 30.17 in 10.0 mi NW 3.5 mph - N/A   Clear
8:35 PM 45.5 °F 41.8 °F 34.2 °F 65% 30.18 in 10.0 mi North 6.9 mph - N/A   Mostly Cloudy
8:55 PM 47.3 °F - 34.7 °F 62% 30.20 in 10.0 mi North 10.4 mph 16.1 mph N/A   Overcast
9:15 PM 46.6 °F - 34.9 °F 64% 30.22 in 10.0 mi North 6.9 mph - N/A   Overcast
9:35 PM 46.4 °F 40.4 °F 34.0 °F 62% 30.23 in 10.0 mi NNE 13.8 mph 19.6 mph N/A   Overcast
9:55 PM 45.7 °F 40.6 °F 33.4 °F 62% 30.24 in 10.0 mi North 10.4 mph 16.1 mph N/A   Overcast
10:15 PM 44.6 °F 40.2 °F 33.1 °F 64% 30.25 in 10.0 mi North 8.1 mph - N/A   Scattered Clouds
10:35 PM 43.9 °F 40.5 °F 33.1 °F 66% 30.25 in 10.0 mi NNW 5.8 mph - N/A   Clear
10:55 PM 43.5 °F 40.9 °F 33.1 °F 67% 30.27 in 10.0 mi NW 4.6 mph - N/A   Clear
11:15 PM 43.0 °F 38.8 °F 33.1 °F 68% 30.28 in 10.0 mi NW 6.9 mph - N/A   Clear
11:35 PM 43.0 °F 39.5 °F 33.3 °F 69% 30.28 in 10.0 mi NW 5.8 mph - N/A   Clear
11:55 PM 42.8 °F 38.6 °F 33.3 °F 69% 30.28 in 10.0 mi NNW 6.9 mph - N/A   Clear